Flag for Russia Weather past 2 weeks in Sochi, Russia

Now
54 °F

Passing clouds.


Feels Like: 51 °F
Forecast: 53 / 78 °F
Wind: 8 mph from Northeast

Location: Adler

Current Time: Apr 28, 2015 at 5:22:47 AM

Latest Report: Apr 28, 2015 at 4:30 AM


Visibility: N/A

Pressure: 30.04 "Hg

Humidity: 67%

Dew point: 43 °F

Location of SochiLocation

Historic Weather in Sochi — Graph

°F

Sochi temperature yesterday

Maximum temperature yesterday: 63 °F (at 1:30 PM)
Minimum temperature yesterday: 48 °F (at 3:00 AM)
Average temperature yesterday: 55 °F

Past Weeks' High & Low Weather Summary

 TemperatureHumidityPressure
High70 °F (Apr 26, 3:00 PM)94% (Apr 19, 3:30 AM)30.30 "Hg (Apr 19, 3:30 AM)
Low36 °F (Apr 23, 4:30 AM)18% (Apr 26, 3:00 PM)29.77 "Hg (Apr 19, 4:00 PM)
Average51 °F71%30.06 "Hg
* Reported Apr 13 4:00 AM — Apr 28 4:00 AM, Sochi, Weather by CustomWeather, © 2015

Note: Actual official high and low records may vary slightly from our data, if they occured in-between our weather recording intervals... More about our weather records

Advertising

Sochi weather history for previous 24 hours

 ConditionsComfort  
Time TempWeatherWind HumidityBarometerVisibility
4:00 AM
Tue, Apr 28
50 °FPassing clouds.3 mph82%30.04 "HgN/A
3:30 AM52 °FPassing clouds.6 mph77%30.07 "HgN/A
3:00 AM52 °FPassing clouds.3 mph72%30.07 "HgN/A
2:30 AM54 °FPassing clouds.1 mph72%30.07 "HgN/A
2:00 AM52 °FPassing clouds.6 mph77%30.07 "HgN/A
1:30 AM52 °FPassing clouds.8 mph77%30.04 "HgN/A
1:00 AM50 °FClear.6 mph82%30.04 "HgN/A
12:30 AM50 °FPassing clouds.6 mph88%30.04 "HgN/A
12:00 AM50 °FClear.6 mph88%30.04 "HgN/A
11:30 PM
Mon, Apr 27
50 °FPassing clouds.6 mph82%30.04 "HgN/A
11:00 PM50 °FPassing clouds.3 mph88%30.04 "HgN/A
10:30 PM50 °FPassing clouds.3 mph88%30.04 "HgN/A
10:00 PM50 °FPassing clouds.3 mph88%30.04 "HgN/A
9:30 PM52 °FPassing clouds.No wind82%30.07 "HgN/A
9:00 PM54 °FPassing clouds.3 mph77%30.07 "HgN/A
8:30 PM54 °FPassing clouds.No wind77%30.07 "HgN/A
8:00 PM54 °FPartly sunny.1 mph77%30.07 "HgN/A
7:30 PM54 °FPartly sunny.6 mph77%30.07 "HgN/A
7:00 PM55 °FPartly sunny.1 mph72%30.04 "HgN/A
6:30 PM55 °FClear.3 mph72%30.04 "HgN/A
6:00 PM55 °FClear.6 mph77%30.04 "HgN/A
5:30 PM59 °FClear.6 mph63%30.04 "HgN/A
5:00 PM63 °FClear.No wind39%30.04 "HgN/A
4:30 PM63 °FClear.No wind42%30.04 "HgN/A
4:00 PM61 °FClear.No wind48%30.07 "HgN/A
3:30 PM61 °FClear.3 mph48%30.07 "HgN/A
3:00 PM61 °FClear.3 mph48%30.07 "HgN/A
2:30 PM61 °FScattered clouds.6 mph48%30.07 "HgN/A
2:00 PM63 °FScattered clouds.8 mph39%30.07 "HgN/A
1:30 PM63 °FScattered clouds.8 mph49%30.07 "HgN/A
1:00 PM61 °FPartly sunny.6 mph59%30.07 "HgN/A
12:30 PM59 °FPartly sunny.10 mph63%30.07 "HgN/A
12:00 PM59 °FPartly sunny.8 mph63%30.07 "HgN/A
11:30 AM55 °FClear.13 mph77%30.07 "HgN/A
11:00 AM57 °FClear.10 mph72%30.04 "HgN/A
10:30 AM57 °FClear.8 mph72%30.04 "HgN/A
10:00 AM57 °FClear.10 mph72%30.04 "HgN/A
9:30 AM57 °FClear.6 mph72%30.07 "HgN/A
9:00 AM55 °FClear.8 mph72%30.07 "HgN/A
8:30 AM59 °FClear.8 mph55%30.04 "HgN/A
8:00 AM59 °FScattered clouds.6 mph48%30.04 "HgN/A
7:30 AM57 °FScattered clouds.10 mph51%30.04 "HgN/A
7:00 AM55 °FScattered clouds.10 mph55%30.04 "HgN/A
6:30 AM52 °FPassing clouds.1 mph62%30.01 "HgN/A
6:00 AM52 °FPassing clouds.No wind62%30.01 "HgN/A
5:30 AM52 °FPassing clouds.3 mph62%29.98 "HgN/A
5:00 AM50 °FPassing clouds.No wind67%29.98 "HgN/A
Weather by CustomWeather, © 2015

See weather overviewHow to use our weather pages